| time (UTC) | temp F | wind direction | speed MPH | gust MPH | rain 1hr in | rain 24hr in | rain mn in | humidity % | barometer mb |
| 20260906214410 | 77 | 149 | 10.0 | 11.0 | 0.00 | 0.00 | 0.00 | 29 | 1013.6 |
| 20260906213904 | 76 | 125 | 4.0 | 11.0 | 0.00 | 0.00 | 0.00 | 30 | 1013.4 |
| 20260906213359 | 75 | 185 | 6.0 | 14.0 | 0.00 | 0.00 | 0.00 | 30 | 1013.8 |
| 20260906212856 | 77 | 106 | 8.0 | 13.0 | 0.00 | 0.00 | 0.00 | 32 | 1013.7 |
| 20260906212352 | 76 | 161 | 2.0 | 10.0 | 0.00 | 0.00 | 0.00 | 32 | 1013.7 |
| 20260906211852 | 75 | 199 | 7.0 | 12.0 | 0.00 | 0.00 | 0.00 | 31 | 1013.8 |
| 20260906211347 | 75 | 180 | 8.0 | 15.0 | 0.00 | 0.00 | 0.00 | 31 | 1013.6 |
| 20260906210842 | 76 | 115 | 5.0 | 7.0 | 0.00 | 0.00 | 0.00 | 30 | 1013.6 |
| 20260906210337 | 75 | 268 | 4.0 | 11.0 | 0.00 | 0.00 | 0.00 | 30 | 1013.7 |
| 20260906205832 | 76 | 172 | 5.0 | 12.0 | 0.00 | 0.00 | 0.00 | 31 | 1013.6 |
| 20260906205328 | 75 | 189 | 2.0 | 10.0 | 0.00 | 0.00 | 0.00 | 31 | 1013.4 |
| 20260906204824 | 74 | 146 | 3.0 | 8.0 | 0.00 | 0.00 | 0.00 | 29 | 1013.7 |
| 20260906204323 | 74 | 156 | 3.0 | 13.0 | 0.00 | 0.00 | 0.00 | 28 | 1013.6 |
| 20260906203822 | 75 | 188 | 4.0 | 9.0 | 0.00 | 0.00 | 0.00 | 28 | 1013.9 |
| 20260906203318 | 74 | 115 | 8.0 | 11.0 | 0.00 | 0.00 | 0.00 | 33 | 1013.6 |
| 20260906202815 | 74 | 88 | 4.0 | 9.0 | 0.00 | 0.00 | 0.00 | 35 | 1013.6 |
| 20260906202314 | 74 | 157 | 6.0 | 10.0 | 0.00 | 0.00 | 0.00 | 33 | 1013.8 |
| 20260906201809 | 74 | 161 | 4.0 | 5.0 | 0.00 | 0.00 | 0.00 | 34 | 1013.7 |
| 20260906201308 | 73 | 159 | 5.0 | 8.0 | 0.00 | 0.00 | 0.00 | 34 | 1013.8 |
| 20260906200804 | 73 | 60 | 0.0 | 7.0 | 0.00 | 0.00 | 0.00 | 38 | 1013.9 |
| 20260906200259 | 71 | 253 | 8.0 | 15.0 | 0.00 | 0.00 | 0.00 | 34 | 1013.9 |
| 20260906195749 | 73 | 80 | 3.0 | 11.0 | 0.00 | 0.00 | 0.00 | 33 | 1013.7 |
| 20260906195245 | 71 | 161 | 6.0 | 14.0 | 0.00 | 0.00 | 0.00 | 33 | 1013.7 |
| 20260906194741 | 72 | 134 | 5.0 | 12.0 | 0.00 | 0.00 | 0.00 | 33 | 1013.6 |
| 20260906194237 | 73 | 88 | 2.0 | 18.0 | 0.00 | 0.00 | 0.00 | 33 | 1013.9 |
| 20260906193731 | 72 | 116 | 3.0 | 9.0 | 0.00 | 0.00 | 0.00 | 32 | 1013.9 |
| 20260906193225 | 73 | 179 | 3.0 | 11.0 | 0.00 | 0.00 | 0.00 | 33 | 1013.9 |
| 20260906192721 | 71 | 125 | 2.0 | 12.0 | 0.00 | 0.00 | 0.00 | 37 | 1013.8 |
| 20260906192216 | 73 | 66 | 3.0 | 8.0 | 0.00 | 0.00 | 0.00 | 38 | 1013.8 |
| 20260906191715 | 72 | 129 | 1.0 | 6.0 | 0.00 | 0.00 | 0.00 | 41 | 1013.9 |
| 20260906191210 | 72 | 186 | 4.0 | 7.0 | 0.00 | 0.00 | 0.00 | 42 | 1014.1 |
| 20260906190705 | 70 | 150 | 3.0 | 9.0 | 0.00 | 0.00 | 0.00 | 44 | 1013.9 |
| 20260906190159 | 70 | 127 | 6.0 | 8.0 | 0.00 | 0.00 | 0.00 | 43 | 1014.1 |
| 20260906185658 | 71 | 122 | 5.0 | 10.0 | 0.00 | 0.00 | 0.00 | 45 | 1014.2 |
| 20260906185157 | 70 | 110 | 4.0 | 12.0 | 0.00 | 0.00 | 0.00 | 50 | 1014.3 |
| 20260906184652 | 70 | 72 | 5.0 | 7.0 | 0.00 | 0.00 | 0.00 | 49 | 1014.5 |
| 20260906184148 | 68 | 38 | 1.0 | 8.0 | 0.00 | 0.00 | 0.00 | 50 | 1014.5 |
| 20260906183643 | 70 | 185 | 1.0 | 9.0 | 0.00 | 0.00 | 0.00 | 50 | 1014.4 |
| 20260906183138 | 69 | 72 | 4.0 | 8.0 | 0.00 | 0.00 | 0.00 | 51 | 1014.5 |
| 20260906182633 | 67 | 62 | 4.0 | 7.0 | 0.00 | 0.00 | 0.00 | 54 | 1014.7 |
| 20260906182129 | 66 | 153 | 0.0 | 5.0 | 0.00 | 0.00 | 0.00 | 54 | 1014.8 |
| 20260906181624 | 65 | 61 | 4.0 | 5.0 | 0.00 | 0.00 | 0.00 | 57 | 1014.9 |
| 20260906181120 | 65 | 91 | 5.0 | 8.0 | 0.00 | 0.00 | 0.00 | 56 | 1014.9 |
| 20260906180615 | 65 | 92 | 4.0 | 8.0 | 0.00 | 0.00 | 0.00 | 58 | 1014.9 |
| 20260906180109 | 66 | 107 | 4.0 | 7.0 | 0.00 | 0.00 | 0.00 | 57 | 1014.7 |
| 20260906175607 | 66 | 78 | 4.0 | 11.0 | 0.00 | 0.00 | 0.00 | 57 | 1015.0 |
| 20260906175103 | 67 | 93 | 9.0 | 11.0 | 0.00 | 0.00 | 0.00 | 54 | 1014.7 |
| 20260906174601 | 66 | 100 | 6.0 | 10.0 | 0.00 | 0.00 | 0.00 | 56 | 1014.9 |
| 20260906174055 | 67 | 40 | 4.0 | 6.0 | 0.00 | 0.00 | 0.00 | 55 | 1014.9 |
| 20260906173550 | 66 | 100 | 5.0 | 9.0 | 0.00 | 0.00 | 0.00 | 54 | 1014.7 |
| 20260906173046 | 65 | 184 | 2.0 | 3.0 | 0.00 | 0.00 | 0.00 | 56 | 1014.8 |
| 20260906172540 | 64 | 181 | 2.0 | 4.0 | 0.00 | 0.00 | 0.00 | 56 | 1014.5 |
| 20260906172036 | 64 | 140 | 3.0 | 5.0 | 0.00 | 0.00 | 0.00 | 58 | 1014.5 |
| 20260906171531 | 64 | 176 | 3.0 | 5.0 | 0.00 | 0.00 | 0.00 | 58 | 1014.7 |
| 20260906171027 | 64 | 160 | 3.0 | 5.0 | 0.00 | 0.00 | 0.00 | 59 | 1014.5 |
| 20260906170522 | 64 | 174 | 0.0 | 4.0 | 0.00 | 0.00 | 0.00 | 58 | 1014.8 |
| 20260906170021 | 64 | 101 | 1.0 | 4.0 | 0.00 | 0.00 | 0.00 | 59 | 1014.5 |
| 20260906165518 | 64 | 174 | 2.0 | 3.0 | 0.00 | 0.00 | 0.00 | 59 | 1014.7 |
| 20260906165013 | 63 | 66 | 1.0 | 4.0 | 0.00 | 0.00 | 0.00 | 63 | 1014.5 |
| 20260906164512 | 62 | 119 | 3.0 | 4.0 | 0.00 | 0.00 | 0.00 | 66 | 1014.5 |
| 20260906164009 | 63 | 74 | 2.0 | 4.0 | 0.00 | 0.00 | 0.00 | 65 | 1014.5 |
| 20260906163509 | 62 | 60 | 1.0 | 3.0 | 0.00 | 0.00 | 0.00 | 65 | 1014.5 |
| 20260906163004 | 62 | 40 | 2.0 | 4.0 | 0.00 | 0.00 | 0.00 | 67 | 1014.4 |
| 20260906162501 | 62 | 74 | 3.0 | 3.0 | 0.00 | 0.00 | 0.00 | 67 | 1014.5 |
| 20260906161955 | 62 | 102 | 3.0 | 3.0 | 0.00 | 0.00 | 0.00 | 66 | 1014.3 |
| 20260906161449 | 63 | 13 | 2.0 | 4.0 | 0.00 | 0.00 | 0.00 | 64 | 1014.4 |
| 20260906160948 | 63 | 77 | 4.0 | 5.0 | 0.00 | 0.00 | 0.00 | 65 | 1014.4 |
| 20260906160442 | 63 | 81 | 3.0 | 5.0 | 0.00 | 0.00 | 0.00 | 66 | 1014.8 |
| 20260906155941 | 63 | 85 | 1.0 | 5.0 | 0.00 | 0.00 | 0.00 | 67 | 1014.7 |
| 20260906155439 | 62 | 114 | 0.0 | 2.0 | 0.00 | 0.00 | 0.00 | 69 | 1014.5 |
| 20260906154936 | 61 | 63 | 2.0 | 5.0 | 0.00 | 0.00 | 0.00 | 72 | 1014.8 |
| 20260906154431 | 60 | 74 | 3.0 | 7.0 | 0.00 | 0.00 | 0.00 | 74 | 1014.7 |
| 20260906153929 | 60 | 175 | 3.0 | 3.0 | 0.00 | 0.00 | 0.00 | 76 | 1015.0 |
| 20260906153428 | 59 | 92 | 2.0 | 5.0 | 0.00 | 0.00 | 0.00 | 78 | 1014.8 |
| 20260906152923 | 60 | 79 | 4.0 | 6.0 | 0.00 | 0.00 | 0.00 | 77 | 1014.9 |
| 20260906152418 | 59 | 76 | 3.0 | 4.0 | 0.00 | 0.00 | 0.00 | 77 | 1014.8 |
| 20260906151917 | 59 | 89 | 4.0 | 5.0 | 0.00 | 0.00 | 0.00 | 79 | 1014.7 |
| 20260906151413 | 58 | 89 | 0.0 | 4.0 | 0.00 | 0.00 | 0.00 | 80 | 1015.0 |
| 20260906150909 | 58 | 89 | 5.0 | 5.0 | 0.00 | 0.00 | 0.00 | 80 | 1014.8 |
| 20260906150403 | 57 | 139 | 0.0 | 1.0 | 0.00 | 0.00 | 0.00 | 81 | 1015.0 |
| 20260906145903 | 56 | 164 | 0.0 | 1.0 | 0.00 | 0.00 | 0.00 | 83 | 1014.9 |
| 20260906145356 | 56 | 297 | 0.0 | 2.0 | 0.00 | 0.00 | 0.00 | 84 | 1014.8 |
| 20260906144852 | 55 | 158 | 1.0 | 2.0 | 0.00 | 0.00 | 0.00 | 85 | 1014.9 |
| 20260906144347 | 55 | 50 | 0.0 | 3.0 | 0.00 | 0.00 | 0.00 | 88 | 1014.9 |
| 20260906143847 | 54 | 61 | 1.0 | 4.0 | 0.00 | 0.00 | 0.00 | 91 | 1014.8 |
| 20260906143343 | 53 | 70 | 2.0 | 4.0 | 0.00 | 0.00 | 0.00 | 92 | 1014.7 |
| 20260906142838 | 53 | 99 | 0.0 | 3.0 | 0.00 | 0.00 | 0.00 | 93 | 1014.8 |
| 20260906142333 | 51 | 47 | 3.0 | 4.0 | 0.00 | 0.00 | 0.00 | 93 | 1014.4 |
| 20260906141832 | 51 | 69 | 1.0 | 2.0 | 0.00 | 0.00 | 0.00 | 93 | 1014.4 |
| 20260906141322 | 51 | 48 | 0.0 | 2.0 | 0.00 | 0.00 | 0.00 | 93 | 1014.5 |
| 20260906140820 | 51 | 85 | 2.0 | 3.0 | 0.00 | 0.00 | 0.00 | 93 | 1014.5 |
| 20260906140316 | 51 | 255 | 0.0 | 1.0 | 0.00 | 0.00 | 0.00 | 93 | 1014.5 |
| 20260906135813 | 51 | 37 | 0.0 | 2.0 | 0.00 | 0.00 | 0.00 | 93 | 1014.2 |
| 20260906135308 | 51 | 79 | 1.0 | 2.0 | 0.00 | 0.00 | 0.00 | 93 | 1014.3 |
| 20260906134803 | 51 | 91 | 1.0 | 3.0 | 0.00 | 0.00 | 0.00 | 93 | 1014.3 |
| 20260906134258 | 51 | 336 | 0.0 | 2.0 | 0.00 | 0.00 | 0.00 | 93 | 1014.3 |
| 20260906133753 | 51 | 326 | 0.0 | 1.0 | 0.00 | 0.00 | 0.00 | 93 | 1014.3 |
| 20260906133249 | 51 | 17 | 0.0 | 2.0 | 0.00 | 0.00 | 0.00 | 93 | 1014.2 |
| 20260906132744 | 51 | 56 | 1.0 | 3.0 | 0.00 | 0.00 | 0.00 | 93 | 1014.2 |
| 20260906132239 | 51 | 92 | 2.0 | 3.0 | 0.00 | 0.00 | 0.00 | 93 | 1014.2 |
| 20260906131735 | 51 | 17 | 3.0 | 4.0 | 0.00 | 0.00 | 0.00 | 93 | 1014.1 |
| 20260906131231 | 51 | 347 | 0.0 | 2.0 | 0.00 | 0.00 | 0.00 | 93 | 1014.0 |
| 20260906130726 | 51 | 285 | 0.0 | 2.0 | 0.00 | 0.00 | 0.00 | 93 | 1013.9 |
| 20260906130221 | 51 | 44 | 0.0 | 1.0 | 0.00 | 0.00 | 0.00 | 92 | 1014.0 |
| 20260906125719 | 51 | 291 | 1.0 | 2.0 | 0.00 | 0.00 | 0.00 | 92 | 1014.0 |
| 20260906125218 | 51 | 20 | 1.0 | 2.0 | 0.00 | 0.00 | 0.00 | 92 | 1014.1 |
| 20260906124713 | 51 | 86 | 2.0 | 3.0 | 0.00 | 0.00 | 0.00 | 92 | 1014.0 |
| 20260906124209 | 52 | 102 | 0.0 | 2.0 | 0.00 | 0.00 | 0.00 | 92 | 1013.9 |
| 20260906123707 | 51 | 329 | 1.0 | 3.0 | 0.00 | 0.00 | 0.00 | 92 | 1014.0 |
| 20260906123203 | 51 | 240 | 0.0 | 1.0 | 0.00 | 0.00 | 0.00 | 92 | 1014.0 |
| 20260906122702 | 51 | 21 | 3.0 | 3.0 | 0.00 | 0.00 | 0.00 | 92 | 1013.9 |
| 20260906122157 | 51 | 73 | 2.0 | 3.0 | 0.00 | 0.00 | 0.00 | 91 | 1013.9 |
| 20260906121654 | 51 | 15 | 0.0 | 2.0 | 0.00 | 0.00 | 0.00 | 91 | 1014.1 |
| 20260906121150 | 52 | 128 | 0.0 | 2.0 | 0.00 | 0.00 | 0.00 | 91 | 1013.8 |
| 20260906120645 | 52 | 304 | 0.0 | 3.0 | 0.00 | 0.00 | 0.00 | 91 | 1014.0 |
| 20260906120142 | 52 | 28 | 1.0 | 3.0 | 0.00 | 0.00 | 0.00 | 91 | 1013.9 |
| 20260906115642 | 52 | 28 | 0.0 | 1.0 | 0.00 | 0.00 | 0.00 | 91 | 1014.2 |
| 20260906115138 | 52 | 58 | 3.0 | 5.0 | 0.00 | 0.00 | 0.00 | 91 | 1014.2 |
| 20260906114636 | 52 | 269 | 1.0 | 5.0 | 0.00 | 0.00 | 0.00 | 91 | 1013.9 |
| 20260906114132 | 52 | 272 | 2.0 | 3.0 | 0.00 | 0.00 | 0.00 | 92 | 1013.9 |
| 20260906113632 | 52 | 149 | 1.0 | 2.0 | 0.00 | 0.00 | 0.00 | 91 | 1013.9 |
| 20260906113126 | 52 | 114 | 3.0 | 4.0 | 0.00 | 0.00 | 0.00 | 91 | 1013.9 |
| 20260906112626 | 52 | 135 | 0.0 | 1.0 | 0.00 | 0.00 | 0.00 | 91 | 1014.0 |
| 20260906112123 | 52 | 25 | 2.0 | 3.0 | 0.00 | 0.00 | 0.00 | 91 | 1014.0 |
| 20260906111622 | 52 | 47 | 2.0 | 3.0 | 0.00 | 0.00 | 0.00 | 91 | 1014.0 |
| 20260906111117 | 52 | 118 | 0.0 | 2.0 | 0.00 | 0.00 | 0.00 | 91 | 1014.2 |
| 20260906110618 | 52 | 214 | 2.0 | 3.0 | 0.00 | 0.00 | 0.00 | 91 | 1014.0 |
| 20260906110112 | 52 | 200 | 0.0 | 2.0 | 0.00 | 0.00 | 0.00 | 92 | 1014.0 |
| 20260906105606 | 52 | 119 | 2.0 | 2.0 | 0.00 | 0.00 | 0.00 | 92 | 1013.9 |
| 20260906105103 | 51 | 327 | 1.0 | 3.0 | 0.00 | 0.00 | 0.00 | 91 | 1013.9 |
| 20260906104601 | 51 | 309 | 0.0 | 2.0 | 0.00 | 0.00 | 0.00 | 91 | 1014.0 |
| 20260906104056 | 51 | 61 | 3.0 | 4.0 | 0.00 | 0.00 | 0.00 | 91 | 1014.1 |
| 20260906103554 | 52 | 68 | 1.0 | 1.0 | 0.00 | 0.00 | 0.00 | 90 | 1013.7 |
| 20260906103049 | 52 | 336 | 0.0 | 2.0 | 0.00 | 0.00 | 0.00 | 90 | 1013.7 |
| 20260906102543 | 52 | 48 | 2.0 | 3.0 | 0.00 | 0.00 | 0.00 | 90 | 1013.9 |
| 20260906102038 | 52 | 35 | 1.0 | 2.0 | 0.00 | 0.00 | 0.00 | 89 | 1014.0 |
| 20260906101533 | 52 | 35 | 1.0 | 2.0 | 0.00 | 0.00 | 0.00 | 89 | 1013.9 |
| 20260906101028 | 52 | 35 | 1.0 | 2.0 | 0.00 | 0.00 | 0.00 | 89 | 1014.0 |
| 20260906100523 | 52 | 35 | 1.0 | 2.0 | 0.00 | 0.00 | 0.00 | 89 | 1014.0 |
| 20260906100018 | 52 | 35 | 1.0 | 2.0 | 0.00 | 0.00 | 0.00 | 89 | 1014.0 |
| 20260906095513 | 52 | 25 | 0.0 | 2.0 | 0.00 | 0.00 | 0.00 | 89 | 1014.2 |
| 20260906095008 | 52 | 49 | 1.0 | 1.0 | 0.00 | 0.00 | 0.00 | 89 | 1014.2 |
| 20260906094507 | 52 | 62 | 0.0 | 2.0 | 0.00 | 0.00 | 0.00 | 89 | 1014.1 |
| 20260906094003 | 53 | 51 | 2.0 | 2.0 | 0.00 | 0.00 | 0.00 | 88 | 1014.1 |
| 20260906093459 | 53 | 277 | 3.0 | 4.0 | 0.00 | 0.00 | 0.00 | 88 | 1014.1 |
| 20260906092954 | 53 | 286 | 1.0 | 2.0 | 0.00 | 0.00 | 0.00 | 88 | 1014.1 |
| 20260906092454 | 53 | 55 | 0.0 | 2.0 | 0.00 | 0.00 | 0.00 | 88 | 1014.1 |
| 20260906091949 | 53 | 47 | 0.0 | 1.0 | 0.00 | 0.00 | 0.00 | 87 | 1014.1 |
| 20260906091444 | 53 | 311 | 1.0 | 2.0 | 0.00 | 0.00 | 0.00 | 87 | 1014.2 |
| 20260906090941 | 54 | 224 | 1.0 | 1.0 | 0.00 | 0.00 | 0.00 | 86 | 1014.1 |
| 20260906090435 | 54 | 104 | 2.0 | 2.0 | 0.00 | 0.00 | 0.00 | 85 | 1014.3 |
| 20260906085930 | 54 | 89 | 0.0 | 2.0 | 0.00 | 0.00 | 0.00 | 85 | 1014.2 |
| 20260906085429 | 54 | 46 | 0.0 | 2.0 | 0.00 | 0.00 | 0.00 | 86 | 1014.4 |
| 20260906084928 | 54 | 45 | 1.0 | 1.0 | 0.00 | 0.00 | 0.00 | 86 | 1014.3 |
| 20260906084424 | 54 | 318 | 0.0 | 2.0 | 0.00 | 0.00 | 0.00 | 86 | 1014.3 |
| 20260906083922 | 54 | 249 | 0.0 | 2.0 | 0.00 | 0.00 | 0.00 | 85 | 1014.3 |
| 20260906083418 | 54 | 204 | 1.0 | 2.0 | 0.00 | 0.00 | 0.00 | 84 | 1014.5 |
| 20260906082917 | 55 | 297 | 0.0 | 1.0 | 0.00 | 0.00 | 0.00 | 84 | 1014.2 |
| 20260906082413 | 55 | 329 | 0.0 | 0.0 | 0.00 | 0.00 | 0.00 | 83 | 1014.3 |
| 20260906081909 | 55 | 31 | 1.0 | 2.0 | 0.00 | 0.00 | 0.00 | 83 | 1014.4 |
| 20260906081404 | 55 | 21 | 1.0 | 3.0 | 0.00 | 0.00 | 0.00 | 83 | 1014.4 |
| 20260906080900 | 55 | 343 | 0.0 | 2.0 | 0.00 | 0.00 | 0.00 | 84 | 1014.2 |
| 20260906080356 | 55 | 313 | 1.0 | 2.0 | 0.00 | 0.00 | 0.00 | 84 | 1014.3 |
| 20260906075855 | 55 | 212 | 0.0 | 3.0 | 0.00 | 0.00 | 0.00 | 84 | 1014.4 |
| 20260906075350 | 55 | 266 | 2.0 | 3.0 | 0.00 | 0.00 | 0.00 | 83 | 1014.3 |
| 20260906074845 | 55 | 125 | 3.0 | 5.0 | 0.00 | 0.00 | 0.00 | 82 | 1014.5 |
| 20260906074340 | 55 | 269 | 2.0 | 3.0 | 0.00 | 0.00 | 0.00 | 82 | 1014.3 |
| 20260906073839 | 56 | 42 | 2.0 | 4.0 | 0.00 | 0.00 | 0.00 | 81 | 1014.2 |
| 20260906073334 | 55 | 33 | 3.0 | 3.0 | 0.00 | 0.00 | 0.00 | 82 | 1014.5 |
| 20260906072831 | 55 | 34 | 2.0 | 3.0 | 0.00 | 0.00 | 0.00 | 82 | 1014.3 |
| 20260906072326 | 56 | 309 | 0.0 | 2.0 | 0.00 | 0.00 | 0.00 | 82 | 1014.0 |
| 20260906071821 | 56 | 240 | 0.0 | 1.0 | 0.00 | 0.00 | 0.00 | 82 | 1014.2 |
| 20260906071316 | 56 | 15 | 2.0 | 2.0 | 0.00 | 0.00 | 0.00 | 82 | 1014.2 |
| 20260906070812 | 56 | 157 | 1.0 | 2.0 | 0.00 | 0.00 | 0.00 | 81 | 1014.3 |
| 20260906070307 | 56 | 55 | 3.0 | 4.0 | 0.00 | 0.00 | 0.00 | 80 | 1014.4 |
| 20260906065802 | 56 | 279 | 0.0 | 2.0 | 0.00 | 0.00 | 0.00 | 79 | 1014.4 |
| 20260906065257 | 56 | 49 | 0.0 | 1.0 | 0.00 | 0.00 | 0.00 | 79 | 1014.3 |
| 20260906064753 | 56 | 59 | 1.0 | 2.0 | 0.00 | 0.00 | 0.00 | 79 | 1014.3 |
| 20260906064249 | 57 | 17 | 1.0 | 3.0 | 0.00 | 0.00 | 0.00 | 78 | 1014.5 |
| 20260906063743 | 57 | 51 | 2.0 | 4.0 | 0.00 | 0.00 | 0.00 | 77 | 1014.4 |
| 20260906063239 | 58 | 315 | 0.0 | 2.0 | 0.00 | 0.00 | 0.00 | 75 | 1014.4 |
| 20260906062734 | 58 | 269 | 1.0 | 2.0 | 0.00 | 0.00 | 0.00 | 75 | 1014.5 |
| 20260906062233 | 57 | 8 | 3.0 | 3.0 | 0.00 | 0.00 | 0.00 | 76 | 1014.5 |
| 20260906061729 | 57 | 12 | 1.0 | 2.0 | 0.00 | 0.00 | 0.00 | 78 | 1014.5 |
| 20260906061226 | 57 | 269 | 0.0 | 1.0 | 0.00 | 0.00 | 0.00 | 77 | 1014.4 |
| 20260906060721 | 58 | 72 | 2.0 | 2.0 | 0.00 | 0.00 | 0.00 | 75 | 1014.4 |
| 20260906060218 | 58 | 69 | 3.0 | 3.0 | 0.00 | 0.00 | 0.00 | 74 | 1014.5 |
| 20260906055713 | 58 | 304 | 1.0 | 2.0 | 0.00 | 0.00 | 0.00 | 74 | 1014.4 |
| 20260906055208 | 58 | 309 | 1.0 | 2.0 | 0.00 | 0.00 | 0.00 | 75 | 1014.5 |
| 20260906054703 | 58 | 106 | 1.0 | 3.0 | 0.00 | 0.00 | 0.00 | 75 | 1014.5 |
| 20260906054158 | 59 | 106 | 1.0 | 3.0 | 0.00 | 0.00 | 0.00 | 73 | 1014.4 |
| 20260906053655 | 59 | 32 | 0.0 | 1.0 | 0.00 | 0.00 | 0.00 | 73 | 1014.3 |
| 20260906053150 | 59 | 81 | 1.0 | 2.0 | 0.00 | 0.00 | 0.00 | 73 | 1014.7 |
| 20260906052645 | 59 | 50 | 2.0 | 3.0 | 0.00 | 0.00 | 0.00 | 72 | 1014.4 |
| 20260906052142 | 60 | 185 | 0.0 | 1.0 | 0.00 | 0.00 | 0.00 | 70 | 1014.7 |
| 20260906051638 | 60 | 352 | 1.0 | 3.0 | 0.00 | 0.00 | 0.00 | 71 | 1014.7 |
| 20260906051137 | 60 | 50 | 2.0 | 3.0 | 0.00 | 0.00 | 0.00 | 72 | 1014.4 |
| 20260906050633 | 60 | 55 | 2.0 | 3.0 | 0.00 | 0.00 | 0.00 | 70 | 1014.5 |
| 20260906050128 | 61 | 66 | 3.0 | 3.0 | 0.00 | 0.00 | 0.00 | 67 | 1014.5 |
| 20260906045627 | 60 | 288 | 3.0 | 4.0 | 0.00 | 0.00 | 0.00 | 67 | 1014.5 |
| 20260906045122 | 61 | 130 | 0.0 | 2.0 | 0.00 | 0.00 | 0.00 | 67 | 1014.4 |
| 20260906044618 | 61 | 352 | 1.0 | 3.0 | 0.00 | 0.00 | 0.00 | 66 | 1014.5 |
| 20260906044113 | 62 | 306 | 0.0 | 3.0 | 0.00 | 0.00 | 0.00 | 65 | 1014.5 |
| 20260906043609 | 62 | 324 | 2.0 | 3.0 | 0.00 | 0.00 | 0.00 | 63 | 1014.5 |
| 20260906043104 | 62 | 263 | 2.0 | 3.0 | 0.00 | 0.00 | 0.00 | 64 | 1014.3 |
| 20260906042604 | 62 | 274 | 2.0 | 2.0 | 0.00 | 0.00 | 0.00 | 66 | 1014.1 |
| 20260906042058 | 63 | 117 | 0.0 | 2.0 | 0.00 | 0.00 | 0.00 | 64 | 1014.3 |
| 20260906041554 | 63 | 282 | 0.0 | 3.0 | 0.00 | 0.00 | 0.00 | 63 | 1014.2 |
| 20260906041049 | 63 | 78 | 0.0 | 1.0 | 0.00 | 0.00 | 0.00 | 62 | 1014.2 |
| 20260906040544 | 63 | 65 | 2.0 | 2.0 | 0.00 | 0.00 | 0.00 | 65 | 1014.3 |
| 20260906040040 | 63 | 296 | 2.0 | 2.0 | 0.00 | 0.00 | 0.00 | 60 | 1013.9 |
| 20260906035535 | 63 | 336 | 0.0 | 0.0 | 0.00 | 0.00 | 0.00 | 63 | 1013.9 |
| 20260906035031 | 63 | 266 | 2.0 | 3.0 | 0.00 | 0.00 | 0.00 | 63 | 1013.9 |
| 20260906034530 | 63 | 6 | 1.0 | 4.0 | 0.00 | 0.00 | 0.00 | 63 | 1013.9 |
| 20260906034026 | 63 | 171 | 1.0 | 4.0 | 0.00 | 0.00 | 0.00 | 63 | 1014.0 |
| 20260906033521 | 64 | 316 | 1.0 | 3.0 | 0.00 | 0.00 | 0.00 | 60 | 1013.6 |
| 20260906033016 | 64 | 169 | 1.0 | 3.0 | 0.00 | 0.00 | 0.00 | 62 | 1013.7 |
| 20260906032513 | 63 | 5 | 3.0 | 3.0 | 0.00 | 0.00 | 0.00 | 62 | 1013.6 |
| 20260906032013 | 64 | 86 | 2.0 | 3.0 | 0.00 | 0.00 | 0.00 | 57 | 1013.5 |
| 20260906031508 | 64 | 265 | 4.0 | 6.0 | 0.00 | 0.00 | 0.00 | 57 | 1013.4 |
| 20260906031004 | 65 | 144 | 5.0 | 5.0 | 0.00 | 0.00 | 0.00 | 58 | 1013.5 |
| 20260906030457 | 64 | 235 | 1.0 | 2.0 | 0.00 | 0.00 | 0.00 | 59 | 1013.2 |
| 20260906025951 | 65 | 40 | 2.0 | 4.0 | 0.00 | 0.00 | 0.00 | 58 | 1013.2 |
| 20260906025446 | 65 | 77 | 2.0 | 3.0 | 0.00 | 0.00 | 0.00 | 58 | 1013.2 |
| 20260906024945 | 65 | 297 | 0.0 | 1.0 | 0.00 | 0.00 | 0.00 | 57 | 1013.1 |
| 20260906024444 | 65 | 322 | 0.0 | 2.0 | 0.00 | 0.00 | 0.00 | 58 | 1013.1 |
| 20260906023939 | 66 | 315 | 0.0 | 2.0 | 0.00 | 0.00 | 0.00 | 58 | 1013.1 |
| 20260906023435 | 66 | 89 | 1.0 | 2.0 | 0.00 | 0.00 | 0.00 | 57 | 1013.2 |
| 20260906022930 | 66 | 142 | 0.0 | 1.0 | 0.00 | 0.00 | 0.00 | 57 | 1013.0 |
| 20260906022426 | 67 | 64 | 1.0 | 3.0 | 0.00 | 0.00 | 0.00 | 55 | 1013.3 |
| 20260906021921 | 68 | 36 | 2.0 | 6.0 | 0.00 | 0.00 | 0.00 | 50 | 1013.2 |
| 20260906021420 | 67 | 289 | 3.0 | 7.0 | 0.00 | 0.00 | 0.00 | 52 | 1013.1 |
| 20260906020914 | 67 | 247 | 2.0 | 5.0 | 0.00 | 0.00 | 0.00 | 54 | 1013.1 |
| 20260906020409 | 68 | 297 | 4.0 | 6.0 | 0.00 | 0.00 | 0.00 | 51 | 1013.3 |
| 20260906015903 | 68 | 327 | 1.0 | 3.0 | 0.00 | 0.00 | 0.00 | 51 | 1013.3 |
| 20260906015402 | 69 | 238 | 0.0 | 3.0 | 0.00 | 0.00 | 0.00 | 52 | 1013.4 |
| 20260906014856 | 69 | 281 | 3.0 | 6.0 | 0.00 | 0.00 | 0.00 | 50 | 1013.2 |
| 20260906014351 | 68 | 300 | 3.0 | 6.0 | 0.00 | 0.00 | 0.00 | 54 | 1013.1 |
| 20260906013847 | 68 | 307 | 2.0 | 5.0 | 0.00 | 0.00 | 0.00 | 55 | 1013.1 |
| 20260906013343 | 70 | 286 | 3.0 | 3.0 | 0.00 | 0.00 | 0.00 | 53 | 1013.2 |
| 20260906012838 | 70 | 22 | 0.0 | 2.0 | 0.00 | 0.00 | 0.00 | 46 | 1013.0 |
| 20260906012333 | 71 | 126 | 1.0 | 2.0 | 0.00 | 0.00 | 0.00 | 49 | 1013.0 |
| 20260906011832 | 71 | 216 | 1.0 | 3.0 | 0.00 | 0.00 | 0.00 | 44 | 1013.2 |
| 20260906011328 | 71 | 1 | 0.0 | 3.0 | 0.00 | 0.00 | 0.00 | 50 | 1013.0 |
| 20260906010823 | 71 | 294 | 3.0 | 4.0 | 0.00 | 0.00 | 0.00 | 47 | 1013.2 |
| 20260906010320 | 71 | 279 | 2.0 | 3.0 | 0.00 | 0.00 | 0.00 | 50 | 1013.1 |
| 20260906005814 | 71 | 304 | 0.0 | 1.0 | 0.00 | 0.00 | 0.00 | 46 | 1013.1 |
| 20260906005313 | 71 | 322 | 1.0 | 3.0 | 0.00 | 0.00 | 0.00 | 45 | 1013.1 |
| 20260906004813 | 71 | 37 | 0.0 | 2.0 | 0.00 | 0.00 | 0.00 | 49 | 1013.0 |
| 20260906004313 | 72 | 133 | 2.0 | 3.0 | 0.00 | 0.00 | 0.00 | 40 | 1013.1 |
| 20260906003808 | 72 | 93 | 3.0 | 5.0 | 0.00 | 0.00 | 0.00 | 41 | 1013.2 |
| 20260906003303 | 72 | 107 | 2.0 | 3.0 | 0.00 | 0.00 | 0.00 | 40 | 1013.1 |
| 20260906002759 | 72 | 106 | 3.0 | 4.0 | 0.00 | 0.00 | 0.00 | 40 | 1013.3 |
| 20260906002258 | 72 | 91 | 2.0 | 5.0 | 0.00 | 0.00 | 0.00 | 41 | 1013.1 |
| 20260906001754 | 73 | 60 | 2.0 | 4.0 | 0.00 | 0.00 | 0.00 | 41 | 1013.3 |
| 20260906001248 | 73 | 154 | 0.0 | 2.0 | 0.00 | 0.00 | 0.00 | 41 | 1013.1 |
| 20260906000743 | 73 | 231 | 3.0 | 5.0 | 0.00 | 0.00 | 0.00 | 40 | 1013.1 |
| 20260906000238 | 73 | 162 | 3.0 | 6.0 | 0.00 | 0.00 | 0.00 | 39 | 1012.9 |
| 20260905235733 | 73 | 96 | 2.0 | 4.0 | 0.00 | 0.00 | 0.00 | 42 | 1013.1 |
| 20260905235233 | 73 | 106 | 3.0 | 6.0 | 0.00 | 0.00 | 0.00 | 41 | 1013.1 |
| 20260905234729 | 73 | 217 | 0.0 | 5.0 | 0.00 | 0.00 | 0.00 | 39 | 1013.0 |
| 20260905234224 | 73 | 222 | 3.0 | 7.0 | 0.00 | 0.00 | 0.00 | 41 | 1013.1 |
| 20260905233719 | 73 | 191 | 0.0 | 5.0 | 0.00 | 0.00 | 0.00 | 40 | 1013.1 |
| 20260905233218 | 73 | 181 | 2.0 | 4.0 | 0.00 | 0.00 | 0.00 | 41 | 1013.1 |
| 20260905232713 | 73 | 230 | 0.0 | 7.0 | 0.00 | 0.00 | 0.00 | 41 | 1013.1 |
| 20260905232209 | 73 | 125 | 3.0 | 9.0 | 0.00 | 0.00 | 0.00 | 41 | 1013.2 |
| 20260905231705 | 73 | 128 | 0.0 | 5.0 | 0.00 | 0.00 | 0.00 | 40 | 1013.2 |
| 20260905231200 | 73 | 126 | 1.0 | 5.0 | 0.00 | 0.00 | 0.00 | 40 | 1013.1 |
| 20260905230656 | 73 | 146 | 4.0 | 10.0 | 0.00 | 0.00 | 0.00 | 40 | 1013.4 |
| 20260905230154 | 73 | 99 | 4.0 | 10.0 | 0.00 | 0.00 | 0.00 | 39 | 1013.3 |
| 20260905225653 | 74 | 76 | 2.0 | 7.0 | 0.00 | 0.00 | 0.00 | 39 | 1013.2 |
| 20260905225148 | 75 | 76 | 5.0 | 10.0 | 0.00 | 0.00 | 0.00 | 36 | 1013.1 |
| 20260905224648 | 75 | 60 | 3.0 | 10.0 | 0.00 | 0.00 | 0.00 | 37 | 1013.2 |
| 20260905224142 | 76 | 76 | 4.0 | 11.0 | 0.00 | 0.00 | 0.00 | 37 | 1013.3 |
| 20260905223639 | 76 | 77 | 6.0 | 11.0 | 0.00 | 0.00 | 0.00 | 38 | 1013.1 |
| 20260905223136 | 75 | 130 | 2.0 | 9.0 | 0.00 | 0.00 | 0.00 | 39 | 1013.2 |
| 20260905222631 | 76 | 79 | 7.0 | 11.0 | 0.00 | 0.00 | 0.00 | 38 | 1013.2 |
| 20260905222126 | 75 | 72 | 3.0 | 7.0 | 0.00 | 0.00 | 0.00 | 40 | 1013.2 |
| 20260905221621 | 75 | 101 | 5.0 | 12.0 | 0.00 | 0.00 | 0.00 | 40 | 1013.3 |
| 20260905221118 | 76 | 97 | 5.0 | 7.0 | 0.00 | 0.00 | 0.00 | 40 | 1013.2 |
| 20260905220613 | 75 | 64 | 6.0 | 9.0 | 0.00 | 0.00 | 0.00 | 40 | 1013.4 |
| 20260905220109 | 75 | 100 | 5.0 | 13.0 | 0.00 | 0.00 | 0.00 | 39 | 1013.5 |
| 20260905215608 | 76 | 73 | 5.0 | 8.0 | 0.00 | 0.00 | 0.00 | 39 | 1013.6 |
| 20260905215104 | 75 | 83 | 2.0 | 9.0 | 0.00 | 0.00 | 0.00 | 39 | 1013.4 |
| 20260905214601 | 75 | 108 | 4.0 | 9.0 | 0.00 | 0.00 | 0.00 | 41 | 1013.6 |